Location: Newark
(44.2003°N, 3.2583°E)
Time: 12:08:01
(UTC+00:00)

Envisat - Pass Details

Date: 21 September 2019
Orbit: 764 x 766 km, 98.1° (Epoch: 22 October)

Event Time Altitude Azimuth Distance (km) Brightness Sun altitude
Rises 18:45:13 0° 194° (SSW) 3,219 6.3 -11.2°
Reaches altitude 10° 18:47:48 10° 206° (SSW) 2,298 5.6 -11.6°
Maximum altitude 18:52:11 29° 265° (W) 1,384 5.2 -12.4°
Drops below altitude 10° 18:56:35 10° 325° (NW) 2,312 6.2 -13.2°
Sets 18:59:11 0° 337° (NNW) 3,243 6.8 -13.6°
